Regional Weather Roundup
Issued by NWS Lake Charles, LA

Home | Current Version | Previous Version | Text Only | Print | Product List | Glossary On
Versions: 1 2 3 4 5 6 7 8 9 10 11 12 13 14 15 16 17 18 19 20 21 22 23 24 25 26 27 28 29 30 31 32 33 34 35 36 37 38 39 40 41 42 43 44 45 46 47 48 49 50
000
ASUS44 KLCH 042210
RWRLCH
RWRLCH
REGIONAL WEATHER ROUNDUP
NATIONAL WEATHER SERVICE LAKE CHARLES LA
500 PM CDT MON MAY 04 2015

Note: "fair" indicates few or no clouds below 12,000 feet with no
significant weather and/or obstructions to visibility.


ACROSS SOUTHEAST TEXAS

CITY           SKY/WX    TMP DP  RH WIND       PRES   REMARKS
BEAUMONT       SUNNY     81  59  47 SE12      30.07S
BEAUMONT CITY    N/A     80  61  52 SE8G18    30.07S
ORANGE         MOCLDY    79  52  39 SE8       30.09S
JASPER         NOT AVBL
$$

ACROSS CENTRAL LOUISIANA

CITY           SKY/WX    TMP DP  RH WIND       PRES   REMARKS
LEESVILLE      MOSUNNY   81  59  45 SE9       30.07F
FULLERTON        N/A     86  59  39 VRB5      30.05F
ALEXANDRIA INT PTSUNNY   82  61  48 SE13G18   30.06F
ESLER FIELD    MOSUNNY   83  63  50 SE7       30.08F
DERIDDER         N/A     82  55  38 SE8       30.09F
OAKDALE        MOCLDY    83  64  50 SE7       30.07F
OPELOUSAS        N/A     73  65  75 SE12      30.11S
$$

ACROSS SOUTHWEST AND SOUTH CENTRAL LOUISIANA

CITY           SKY/WX    TMP DP  RH WIND       PRES   REMARKS
SULPHUR        PTCLDY    83  59  43 E12       30.08F
LAKE CHARLES   SUNNY     81  60  48 SE9       30.07F
CHENNAULT INT  NOT AVBL
CAMERON PHI    CLEAR     79  63  57 S9        30.11S
DEQUINCY         N/A     81  57  43 S3        30.08F
JENNINGS         N/A     82  63  52 S9        30.07F
LAFAYETTE      PTSUNNY   76  66  71 SE8G18    30.11R
NEW IBERIA       N/A    N/A N/A N/A MISG      30.11F
ABBEVILLE      CLOUDY    77  67  70 E9G16     30.10S
PATTERSON      CLOUDY   N/A N/A N/A E12       30.12S
SALT POINT       N/A     76  65  68 SE12      30.09S
$$

SELECTED SITES ACROSS THE REGION

CITY           SKY/WX    TMP DP  RH WIND       PRES   REMARKS
HOUSTON BUSH   MOSUNNY   81  58  45 SE20      30.05S
HOUSTON HOBBY  MOSUNNY   80  60  50 E14       30.05S
GALVESTON      SUNNY     79  63  57 E17       30.07F
COLLEGE STAT   SUNNY     83  57  41 SE14      30.02F
CONROE         MOSUNNY   81  51  35 E9        30.05F
HUNTSVILLE     SUNNY     83  53  35 VRB6      30.04F
LUFKIN         MOSUNNY   83  56  39 SE8       30.06F
SHREVEPORT     MOSUNNY   83  58  42 SE9       30.07F
MONROE         SUNNY     83  60  45 CALM      30.11F
NATCHEZ MS     MOSUNNY   82  64  54 E13       30.12F
BATON ROUGE    PTSUNNY   81  64  56 E14       30.12S
N.O. INTL ARPT CLOUDY    79  60  52 SE14G25   30.14S
SLIDELL        PTSUNNY   79  66  64 E13G21    30.15S
$$

MARINE REPORTS

STATION/POSITION TIME  TEMP    WIND        PRES    VSBY  WAVE
                       AIR SEA DIR/SP/G                  HT/PER
                 (UTC) (F)     (DEG/KT/KT) (MB)    (MI)  (FT/S)
BUOY 30 S HIGH I 2150   75 76  100/ 16/ 17 1017.8F         2/ 5
SEA RIM ST PARK  2200   76     120/ 12/ 14 1018.8F
PORT ARTHUR      2100      73  140/  6/ 10 1018.9F
SABINE PASS N    2100   75 76  130/ 10/ 17 1019.0F
TEXAS POINT      NOT AVBL
CALCASIEU PASS   2100   77 77  170/  8/ 10   N/A
LK CHARLES BEACH 2100   82 71              1018.8F
MARSH ISLAND     2100   75     120/ 17/ 20   N/A           4
FRESH WATER LOCK 2100   78 78  100/  9/ 15 1018.9F
AMERADA PASS     2100      73  120/  7/ 14 1019.6R
$$


USA.gov is the U.S. government's official web portal to all federal, state and local government web resources and services.